Location: Newark
(47.5833°N, 8.1500°E)
Time: 07:44:30
(UTC+00:00)

Altair - Pass Details

Date: 30 October 2020
Orbit: 1502 x 1682 km, 47.2° (Epoch: 03 December)

Event Time Altitude Azimuth Distance (km) Brightness Sun altitude
Exits shadow 05:04:31 - 242° (WSW) 4,217 9.3 -11.3°
Reaches altitude 10° 05:06:11 10° 241° (WSW) 3,677 9.0 -11.1°
Maximum altitude 05:15:25 73° 159° (SSE) 1,611 7.7 -9.5°
Drops below altitude 10° 05:25:01 10° 77° (ENE) 3,813 10.8 -7.9°
Sets 05:28:11 0° 76° (ENE) 4,824 11.4 -7.4°
